When you browse on this site, cookies collect data to enhance your experience and personalize the content and advertising you see.
Visit our Privacy Policy to learn more. By continuing to use the site, you agree to this use of cookies and data.
  • en France
  • Liste des pays
  • À 7 jours
  • Température de l'eau
  • Carte satellitaire
  • Carte météo
  • Widgets météo
  • user-avatar
    Se connecter

    Météo par heure à Prutz

    Ce jour, 19 Juin, Mercredi

    Heure Température Précipitation Vent Pression Humidité
    00:00 +11°C° 0.5 mm 0 m/s 634 mmHg 91%
    01:00 +11°C° 0.5 mm 0 m/s 633 mmHg 92%
    02:00 +11°C° 0.2 mm 0 m/s 633 mmHg 91%
    03:00 +11°C° 0.2 mm 0 m/s 633 mmHg 90%
    04:00 +12°C° 0.2 mm 1 m/s 633 mmHg 89%
    05:00 +13°C° 0.1 mm 1 m/s 634 mmHg 85%
    06:00 +15°C° 0.1 mm 1 m/s 634 mmHg 80%
    07:00 +16°C° 0.1 mm 1 m/s 634 mmHg 76%
    08:00 +18°C° 0.3 mm 1 m/s 635 mmHg 68%
    09:00 +20°C° 0.3 mm 1 m/s 635 mmHg 61%
    10:00 +19°C° 0.3 mm 0 m/s 635 mmHg 53%
    11:00 +22°C° 0.2 mm 1 m/s 635 mmHg 49%
    12:00 +23°C° 0.2 mm 1 m/s 635 mmHg 45%
    13:00 +23°C° 0.2 mm 1 m/s 636 mmHg 40%
    14:00 +23°C° 0.2 mm 1 m/s 635 mmHg 42%
    15:00 +23°C° 0.2 mm 2 m/s 635 mmHg 44%
    16:00 +21°C° 0.2 mm 2 m/s 634 mmHg 46%
    17:00 +20°C° 0.4 mm 2 m/s 634 mmHg 55%
    18:00 +20°C° 0.4 mm 1 m/s 634 mmHg 64%
    19:00 +19°C° 0.4 mm 1 m/s 634 mmHg 73%
    20:00 +18°C° 0.8 mm 1 m/s 634 mmHg 76%
    21:00 +15°C° 0.8 mm 1 m/s 633 mmHg 79%
    22:00 +14°C° 0.8 mm 1 m/s 633 mmHg 83%
    23:00 +14°C° 0.1 mm 1 m/s 633 mmHg 83%

    Demain, 20 Juin, Jeudi

    Heure Température Précipitation Vent Pression Humidité
    00:00 +13°C° 0.1 mm 1 m/s 633 mmHg 83%
    01:00 +12°C° 0.1 mm 1 m/s 633 mmHg 83%
    02:00 +12°C° 0.1 mm 1 m/s 632 mmHg 84%
    03:00 +11°C° 0.1 mm 1 m/s 632 mmHg 85%
    04:00 +10°C° 0.1 mm 0 m/s 632 mmHg 85%
    05:00 +11°C° 0 mm 0 m/s 632 mmHg 82%
    06:00 +13°C° 0 mm 0 m/s 633 mmHg 78%
    07:00 +15°C° 0 mm 0 m/s 634 mmHg 74%
    08:00 +16°C° 0.8 mm 1 m/s 634 mmHg 74%
    09:00 +18°C° 0.8 mm 1 m/s 634 mmHg 74%
    10:00 +19°C° 0.8 mm 1 m/s 635 mmHg 73%
    11:00 +19°C° 1.7 mm 1 m/s 634 mmHg 74%
    12:00 +19°C° 1.7 mm 1 m/s 634 mmHg 75%
    13:00 +19°C° 1.7 mm 1 m/s 634 mmHg 75%
    14:00 +17°C° 1.7 mm 2 m/s 634 mmHg 78%
    15:00 +17°C° 1.7 mm 2 m/s 634 mmHg 81%
    16:00 +16°C° 1.7 mm 2 m/s 634 mmHg 84%
    17:00 +15°C° 0.7 mm 2 m/s 634 mmHg 88%
    18:00 +15°C° 0.7 mm 2 m/s 634 mmHg 91%
    19:00 +14°C° 0.7 mm 2 m/s 634 mmHg 94%
    20:00 +13°C° 0.6 mm 1 m/s 634 mmHg 95%
    21:00 +13°C° 0.6 mm 1 m/s 634 mmHg 95%
    22:00 +11°C° 0.6 mm 0 m/s 634 mmHg 95%
    23:00 +11°C° 0.2 mm 0 m/s 634 mmHg 94%

    Après-demain, 21 Juin, Vendredi

    Heure Température Précipitation Vent Pression Humidité
    00:00 +11°C° 0.2 mm 0 m/s 634 mmHg 93%
    01:00 +10°C° 0.2 mm 0 m/s 634 mmHg 92%
    02:00 +10°C° 0.1 mm 0 m/s 634 mmHg 91%
    03:00 +11°C° 0.1 mm 0 m/s 634 mmHg 89%
    04:00 +11°C° 0.1 mm 0 m/s 634 mmHg 88%
    05:00 +12°C° 0.3 mm 1 m/s 634 mmHg 86%
    06:00 +13°C° 0.3 mm 1 m/s 634 mmHg 84%
    07:00 +13°C° 0.3 mm 1 m/s 635 mmHg 82%
    08:00 +15°C° 0 mm 1 m/s 635 mmHg 73%
    09:00 +18°C° 0 mm 1 m/s 636 mmHg 63%
    10:00 +20°C° 0 mm 1 m/s 637 mmHg 54%
    11:00 +20°C° 0.1 mm 1 m/s 637 mmHg 53%
    12:00 +20°C° 0.1 mm 2 m/s 636 mmHg 52%
    13:00 +20°C° 0.1 mm 2 m/s 636 mmHg 51%
    14:00 +19°C° 0.8 mm 2 m/s 636 mmHg 58%
    15:00 +19°C° 0.8 mm 2 m/s 636 mmHg 65%
    16:00 +18°C° 0.8 mm 2 m/s 635 mmHg 72%
    17:00 +17°C° 1.3 mm 2 m/s 635 mmHg 79%
    18:00 +16°C° 1.3 mm 1 m/s 635 mmHg 86%
    19:00 +15°C° 1.3 mm 1 m/s 634 mmHg 93%
    20:00 +14°C° 1 mm 1 m/s 634 mmHg 94%
    21:00 +13°C° 1 mm 1 m/s 634 mmHg 95%
    22:00 +13°C° 1 mm 1 m/s 634 mmHg 96%
    23:00 +12°C° 0.1 mm 1 m/s 634 mmHg 96%

    22 Juin, Samedi

    Heure Température Précipitation Vent Pression Humidité
    00:00 +11°C° 0.1 mm 0 m/s 634 mmHg 96%
    01:00 +11°C° 0.1 mm 0 m/s 634 mmHg 96%
    02:00 +12°C° 0.5 mm 1 m/s 634 mmHg 96%
    03:00 +12°C° 0.5 mm 1 m/s 633 mmHg 95%
    04:00 +12°C° 0.5 mm 1 m/s 633 mmHg 95%
    05:00 +12°C° 0.2 mm 1 m/s 634 mmHg 92%
    06:00 +13°C° 0.2 mm 1 m/s 634 mmHg 90%
    07:00 +13°C° 0.2 mm 0 m/s 634 mmHg 87%
    08:00 +14°C° 0.9 mm 1 m/s 634 mmHg 85%
    09:00 +15°C° 0.9 mm 1 m/s 635 mmHg 83%
    10:00 +16°C° 0.9 mm 1 m/s 635 mmHg 81%
    11:00 +18°C° 1.7 mm 1 m/s 635 mmHg 81%
    12:00 +18°C° 1.7 mm 1 m/s 635 mmHg 80%
    13:00 +19°C° 1.7 mm 1 m/s 635 mmHg 79%
    14:00 +18°C° 1.8 mm 1 m/s 635 mmHg 80%
    15:00 +18°C° 1.8 mm 1 m/s 635 mmHg 81%
    16:00 +17°C° 1.8 mm 2 m/s 634 mmHg 82%
    17:00 +16°C° 1.1 mm 2 m/s 634 mmHg 85%
    18:00 +15°C° 1.1 mm 2 m/s 634 mmHg 88%
    19:00 +14°C° 1.1 mm 2 m/s 634 mmHg 91%
    20:00 +13°C° 0.1 mm 1 m/s 634 mmHg 93%
    21:00 +13°C° 0.1 mm 1 m/s 634 mmHg 94%
    22:00 +11°C° 0.1 mm 0 m/s 635 mmHg 96%
    23:00 +10°C° 0 mm 0 m/s 635 mmHg 95%

    23 Juin, Dimanche

    Heure Température Précipitation Vent Pression Humidité
    00:00 +10°C° 0 mm 0 m/s 634 mmHg 94%
    01:00 +10°C° 0 mm 0 m/s 634 mmHg 93%
    02:00 +9°C° 0 mm 0 m/s 634 mmHg 93%
    03:00 +9°C° 0 mm 1 m/s 634 mmHg 93%
    04:00 +8°C° 0 mm 1 m/s 633 mmHg 92%
    05:00 +9°C° 0 mm 0 m/s 634 mmHg 87%
    06:00 +11°C° 0 mm 0 m/s 635 mmHg 82%
    07:00 +13°C° 0 mm 0 m/s 636 mmHg 76%
    08:00 +15°C° 0 mm 0 m/s 637 mmHg 68%
    09:00 +19°C° 0 mm 1 m/s 637 mmHg 59%
    10:00 +21°C° 0 mm 1 m/s 638 mmHg 50%
    11:00 +22°C° 0 mm 1 m/s 638 mmHg 46%
    12:00 +23°C° 0 mm 1 m/s 639 mmHg 41%
    13:00 +24°C° 0 mm 1 m/s 639 mmHg 36%
    14:00 +24°C° 0 mm 2 m/s 639 mmHg 37%
    15:00 +24°C° 0 mm 2 m/s 639 mmHg 38%
    16:00 +24°C° 0 mm 3 m/s 639 mmHg 40%
    17:00 +21°C° 0 mm 2 m/s 638 mmHg 50%
    18:00 +20°C° 0 mm 2 m/s 638 mmHg 61%
    19:00 +18°C° 0 mm 2 m/s 638 mmHg 71%
    20:00 +16°C° 0 mm 1 m/s 637 mmHg 78%
    21:00 +14°C° 0 mm 1 m/s 637 mmHg 85%
    22:00 +11°C° 0 mm 0 m/s 637 mmHg 92%
    23:00 +11°C° 0 mm 0 m/s 637 mmHg 91%

    24 Juin, Lundi

    Heure Température Précipitation Vent Pression Humidité
    00:00 +12°C° 0 mm 1 m/s 637 mmHg 89%
    01:00 +12°C° 0 mm 1 m/s 637 mmHg 88%
    02:00 +12°C° 0 mm 1 m/s 637 mmHg 85%
    03:00 +12°C° 0 mm 1 m/s 637 mmHg 83%
    04:00 +11°C° 0 mm 1 m/s 637 mmHg 80%
    05:00 +14°C° 0 mm 1 m/s 638 mmHg 70%
    06:00 +18°C° 0 mm 1 m/s 639 mmHg 61%
    07:00 +20°C° 0 mm 1 m/s 640 mmHg 51%
    08:00 +22°C° 0 mm 1 m/s 641 mmHg 44%
    09:00 +24°C° 0 mm 1 m/s 641 mmHg 36%
    10:00 +26°C° 0 mm 1 m/s 642 mmHg 29%
    11:00 +27°C° 0 mm 1 m/s 642 mmHg 28%
    12:00 +28°C° 0 mm 1 m/s 642 mmHg 27%
    13:00 +29°C° 0 mm 1 m/s 643 mmHg 26%
    14:00 +29°C° 0 mm 1 m/s 643 mmHg 26%
    15:00 +29°C° 0 mm 1 m/s 642 mmHg 26%
    16:00 +29°C° 0 mm 1 m/s 642 mmHg 27%
    17:00 +27°C° 0 mm 1 m/s 642 mmHg 38%
    18:00 +26°C° 0 mm 1 m/s 642 mmHg 49%
    19:00 +24°C° 0 mm 1 m/s 641 mmHg 61%
    20:00 +22°C° 0 mm 1 m/s 641 mmHg 64%
    21:00 +20°C° 0 mm 1 m/s 641 mmHg 67%
    22:00 +16°C° 0 mm 1 m/s 640 mmHg 71%
    23:00 +16°C° 0 mm 1 m/s 640 mmHg 67%
    Voir plus